Regional Weather Roundup
Issued by NWS

Home | Current Version | Previous Version | Text Only | Print | Product List | Glossary Off
Versions: 1 2 3 4 5 6 7 8 9 10 11 12 13 14 15 16 17 18 19 20 21 22 23 24 25 26 27 28 29 30 31 32 33 34 35 36 37 38 39 40 41 42 43 44 45 46 47 48 49 50

953
ASUS44 KJAN 212303
RWRMS

MISSISSIPPI HOURLY WEATHER ROUNDUP
NATIONAL WEATHER SERVICE JACKSON MS
600 PM CDT THU AUG 21 2014

NOTE: "FAIR: INDICATES FEW OR NO CLOUDS BELOW 12,000 FEET WITH NO
SIGNIFICANT WEATHER AND/OR OBSTRUCTIONS TO VISIBILITY.

MSZ001>002-007>008-010>013-018>021-025>028-034>036-220000-
NORTHWEST MISSISSIPPI

CITY           SKY/WX    TMP DP  RH WIND       PRES   REMARKS
CLARKSDALE     FAIR      91  77  62 SW3       30.05S HX 105
CLEVELAND      FAIR      92  77  60 W6        30.04F HX 106
GREENWOOD      SUNNY     92  75  57 SW5       30.05S HX 103
GREENVILLE     SUNNY     93  73  52 W7        30.05R HX 102
GRENADA        FAIR      91  72  52 SW3       30.06S HX  98
OLIVE BRANCH   MOSUNNY   90  75  62 SW12      30.04F HX 100
OXFORD         FAIR      90  72  55 SW6       30.08S HX  96
TUNICA         CLEAR     91  72  52 S8        30.04S HX  98
$$

MSZ003>006-009-014>017-022>024-029>033-037>039-220000-
NORTHEAST MISSISSIPPI

CITY           SKY/WX    TMP DP  RH WIND       PRES   REMARKS
BELMONT        FAIR      89  74  60 CALM      30.07S HX  97
COLUMBUS AFB   SUNNY     93  71  47 NE2       30.05S HX 100
CORINTH        FAIR      91  73  55 CALM      30.04F HX 100
GOLDN TRIANGLE MOSUNNY   97  72  44 N7        30.06S HX 105
STARKVILLE     FAIR      90  70  51 CALM      30.05S HX  95
TUPELO         SUNNY     93  70  46 VRB3      30.05F HX  99
$$

MSZ040-058-220000-
CENTRAL MISSISSIPPI

CITY           SKY/WX    TMP DP  RH WIND       PRES   REMARKS
JACKSON INTL   PTSUNNY   88  73  61 SE12      30.09R THUNDER HX  95
JACKSON HAWKNS LGT RAIN  83  67  58 N10G28    30.10R
MERIDIAN KEY   SUNNY     94  68  42 SW6       30.06F HX  98
MERIDIAN NAS   MOSUNNY   93  69  45 SW6       30.07S HX  98
RAYMOND        FAIR      90  82  79 S8        30.08R HX 111
VICKSBURG      LGT RAIN  76  72  87 N3        30.09F
$$

MSZ059>079-220000-
SOUTH MISSISSIPPI

CITY           SKY/WX    TMP DP  RH WIND       PRES   REMARKS
BROOKHAVEN     FAIR      73  72  94 CALM      30.14R
HATTIESBURG    CLOUDY    87  71  58 NW14      30.10R THUNDER HX  93
MCCOMB         CLOUDY    86  73  65 W5        30.12R HX  93
NATCHEZ        CLOUDY    82  73  74 W18       30.15R THUNDER
PINE BELT      MOSUNNY   93  70  46 W3        30.11R HX  99
$$

MSZ080>082-220000-
COASTAL MISSISSIPPI

CITY           SKY/WX    TMP DP  RH WIND       PRES   REMARKS
BAY ST LOUIS   MOSUNNY  N/A N/A N/A SW7       30.10R
BILOXI         SUNNY     90  73  57 SW10      30.09R HX  98
PASCAGOULA     MOSUNNY   87  76  69 S6        30.09R HX  97
GULFPORT       SUNNY     90  72  55 S8        30.09R HX  97
$$



USA.gov is the U.S. government's official web portal to all federal, state and local government web resources and services.